Pecs, Hungary

10:44 AM CET on December 10, 2016 (GMT +0100)
Pecs

Weather History for LHPP - September, 2013

Change the Weather History Date:

Friday, September 13, 2013

  Actual Average Record
Temperature  
Mean Temperature 58 °F -  
Max Temperature 65 °F 68 °F - ()
Min Temperature 51 °F 50 °F - ()
Degree Days  
Heating Degree Days 7    
Growing Degree Days 8 (Base 50)    
Moisture  
Dew Point 47 °F    
Average Humidity 68    
Maximum Humidity 94    
Minimum Humidity 35    
Precipitation  
Precipitation 0.00 in 0.06 in - ()
Sea Level Pressure  
Sea Level Pressure 30.06 in    
Wind  
Wind Speed 6 mph ()    
Max Wind Speed 16 mph    
Max Gust Speed -    
Visibility 6.6 miles    
Events Rain    
T = Trace of Precipitation, MM = Missing Value Source: Averaged Metar Reports

Daily Weather History Graph

Daily Weather History Graph

Search for Another Location

Airport or City:

Trip Planner

Search our weather history database for the weather conditions in past years. The results will help you decide how hot, cold, wet, or windy it might be!

Date:

Astronomy

Sep. 13, 2013 Rise Set
Actual Time 6:22 AM CEST 7:02 PM CEST
Civil Twilight 5:52 AM CEST 7:32 PM CEST
Nautical Twilight 5:16 AM CEST 8:08 PM CEST
Astronomical Twilight 4:39 AM CEST 8:45 PM CEST
Moon 2:49 PM CEST (9/13) No Moon Set
Length of Visible Light 13h 39m
Length of Day
12h 39m
First Quarter, 58% of the Moon is Illuminated
Sep 13
First Quarter
Sep 19
Full
Sep 27
Last Quarter
Oct 5
New
Oct 12
First Quarter

Hourly Weather History & Observations

Time (CEST) Temp. Dew Point Humidity Pressure Visibility Wind Dir Wind Speed Gust Speed Precip Events Conditions
12:45 AM 55.4 °F 50.0 °F 82% 30.01 in 6.2 mi NW 4.6 mph - N/A   Mostly Cloudy
1:45 AM 53.6 °F 50.0 °F 88% 30.01 in 6.2 mi NNW 3.5 mph - N/A   Mostly Cloudy
2:00 AM 53 °F 50 °F 85% 30.01 in 19 mi NNW 2.2 mph - -   Partly Cloudy
2:45 AM 53.6 °F 48.2 °F 82% 30.01 in 6.2 mi NNE 2.3 mph - N/A   Mostly Cloudy
3:45 AM 55.4 °F 48.2 °F 77% 30.04 in 6.2 mi NNW 8.1 mph - N/A   Mostly Cloudy
4:45 AM 55.4 °F 48.2 °F 77% 30.04 in 6.2 mi NW 4.6 mph - N/A   Mostly Cloudy
5:45 AM 55.4 °F 46.4 °F 72% 30.04 in 6.2 mi NNW 5.8 mph - N/A   Mostly Cloudy
6:15 AM 53.6 °F 46.4 °F 77% 30.04 in 6.2 mi NW 5.8 mph - N/A   Mostly Cloudy
6:45 AM 53.6 °F 46.4 °F 77% 30.04 in - NW 4.6 mph - N/A   Clear
7:00 AM - - N/A% - 6.2 mi NW 6.9 mph - N/A   Scattered Clouds
7:15 AM 51.8 °F 48.2 °F 88% 30.06 in - West 4.6 mph - N/A   Clear
7:45 AM 55.4 °F 48.2 °F 77% 30.06 in - West 3.5 mph - N/A   Clear
8:00 AM 55 °F 47 °F 68% 30.06 in 31 mi West 4.5 mph - -   Partly Cloudy
8:15 AM 55.4 °F 48.2 °F 77% 30.06 in - WNW 5.8 mph - N/A   Clear
8:45 AM 57.2 °F 48.2 °F 72% 30.06 in - WNW 5.8 mph - N/A   Clear
9:15 AM 57.2 °F 46.4 °F 67% 30.06 in - NW 5.8 mph - N/A   Clear
9:45 AM 59.0 °F 48.2 °F 67% 30.06 in 6.2 mi WNW 5.8 mph - N/A   Mostly Cloudy
10:00 AM - - N/A% - 6.2 mi NW 8.1 mph - N/A   Mostly Cloudy
10:15 AM 60.8 °F 48.2 °F 63% 30.09 in 6.2 mi NW 9.2 mph - N/A   Mostly Cloudy
10:45 AM 60.8 °F 46.4 °F 59% 30.06 in 6.2 mi WNW 10.4 mph - N/A   Scattered Clouds
11:15 AM 60.8 °F 46.4 °F 59% 30.09 in 6.2 mi WNW 10.4 mph - N/A   Scattered Clouds
11:45 AM 62.6 °F 48.2 °F 59% 30.06 in 6.2 mi WNW 10.4 mph - N/A   Scattered Clouds
12:15 PM 62.6 °F 48.2 °F 59% 30.06 in 6.2 mi WNW 10.4 mph - N/A   Scattered Clouds
12:45 PM 64.4 °F 44.6 °F 49% 30.06 in 6.2 mi WNW 12.7 mph - N/A   Mostly Cloudy
1:00 PM - - N/A% - 6.2 mi WNW 10.4 mph - N/A   Mostly Cloudy
1:15 PM 64.4 °F 46.4 °F 52% 30.06 in 6.2 mi WNW 12.7 mph - N/A   Mostly Cloudy
1:45 PM 64.4 °F 44.6 °F 49% 30.06 in 6.2 mi WNW 15.0 mph - N/A   Mostly Cloudy
2:00 PM 65 °F 44 °F 35% 30.06 in 47 mi WNW 15.7 mph - -   Partly Cloudy
2:15 PM 64.4 °F 44.6 °F 49% 30.06 in 6.2 mi NW 12.7 mph - N/A   Mostly Cloudy
2:45 PM 64.4 °F 44.6 °F 49% 30.06 in 6.2 mi WNW 13.8 mph - N/A   Mostly Cloudy
3:15 PM 64.4 °F 42.8 °F 45% 30.06 in 6.2 mi WNW 10.4 mph - N/A   Mostly Cloudy
3:45 PM 62.6 °F 44.6 °F 52% 30.06 in 6.2 mi WNW 11.5 mph - N/A   Mostly Cloudy
4:00 PM - - N/A% - 6.2 mi WNW 13.8 mph - N/A   Mostly Cloudy
4:05 PM 60.8 °F 44.6 °F 55% 30.06 in 6.2 mi WNW 13.8 mph - N/A Rain Light Rain Showers
4:12 PM 59.0 °F 46.4 °F 63% 30.06 in - NW 13.8 mph - N/A   Unknown
4:15 PM 59.0 °F 44.6 °F 59% 30.06 in 6.2 mi NW 15.0 mph - N/A Rain Light Rain Showers
4:45 PM 57.2 °F 48.2 °F 72% 30.06 in 6.2 mi WNW 6.9 mph - N/A   Mostly Cloudy
5:15 PM 57.2 °F 48.2 °F 72% 30.06 in 6.2 mi WNW 8.1 mph - N/A   Mostly Cloudy
5:45 PM 57.2 °F 46.4 °F 67% 30.06 in 6.2 mi WNW 6.9 mph - N/A   Mostly Cloudy
6:15 PM 57.2 °F 46.4 °F 67% 30.06 in 6.2 mi West 5.8 mph - N/A   Mostly Cloudy
6:45 PM 57.2 °F 48.2 °F 72% 30.06 in 6.2 mi West 5.8 mph - N/A   Mostly Cloudy
7:15 PM 57.2 °F 48.2 °F 72% 30.09 in 6.2 mi WNW 5.8 mph - N/A   Mostly Cloudy
7:45 PM 57.2 °F 48.2 °F 72% 30.09 in 6.2 mi West 5.8 mph - N/A   Mostly Cloudy
8:00 PM 56 °F 49 °F 70% 30.09 in 37 mi West 6.7 mph - -   Partly Cloudy
8:15 PM 55.4 °F 50.0 °F 82% 30.09 in - West 4.6 mph - N/A   Clear
8:45 PM 55.4 °F 48.2 °F 77% 30.09 in - West 6.9 mph - N/A   Clear
9:15 PM 55.4 °F 48.2 °F 77% 30.09 in - West 8.1 mph - N/A   Clear
9:45 PM 55.4 °F 48.2 °F 77% 30.09 in - West 5.8 mph - N/A   Clear
10:45 PM 53.6 °F 48.2 °F 82% 30.09 in - NW 4.6 mph - N/A   Clear
11:45 PM 51.8 °F 50.0 °F 94% 30.09 in - WNW 8.1 mph - N/A   Clear